IA5FYI-13 Weather Reports


time (UTC)temp
F
wind
direction
speed
knots
gust
knots
rain 1hr
in
rain 24hr
in
rain mn
in
humidity
%
barometer
mb
20260505083509 66 191 6.1 9.6 0.03 2.45 2.45 90 1011.2
20260505083023 66 245 10.4 13.9 0.03 2.45 2.45 90 1011.2
20260505082509 66 72 7.8 10.4 0.03 2.45 2.45 91 1011.2
20260505082013 66 153 9.6 12.2 0.03 2.45 2.45 91 1011.2
20260505081513 66 162 12.2 20.0 0.03 2.45 2.45 91 1010.8
20260505081014 66 128 6.1 7.8 0.03 2.45 2.45 91 1011.2
20260505080508 66 165 6.1 7.8 0.00 2.42 2.42 91 1010.8
20260505080032 66 139 7.8 9.6 0.06 2.42 2.42 91 1010.8
20260505075509 66 143 5.2 7.0 0.06 2.42 2.42 91 1010.8
20260505075013 66 165 6.1 9.6 0.06 2.42 2.42 91 1010.8
20260505074513 64 153 7.8 9.6 0.06 2.42 2.42 91 1011.2
20260505074012 64 157 10.4 13.9 0.06 2.42 2.42 91 1010.8
20260505073509 64 149 7.0 11.3 0.06 2.42 2.42 91 1010.8
20260505073024 64 163 7.8 13.9 0.01 2.37 2.37 92 1010.8
20260505072509 64 173 5.2 6.1 0.01 2.37 2.37 93 1010.8
20260505072012 64 163 9.6 10.4 0.01 2.37 2.37 93 1011.2
20260505071512 64 285 9.6 14.8 0.01 2.37 2.37 93 1011.2
20260505071013 64 174 9.6 11.3 0.01 2.37 2.37 93 1010.8
20260505070509 64 172 7.8 11.3 0.00 2.36 2.36 93 1010.8
20260505070033 64 141 10.4 14.8 0.10 2.36 2.36 93 1011.2
20260505065509 64 195 5.2 7.8 0.10 2.36 2.36 93 1011.2
20260505065013 64 154 13.0 17.4 0.10 2.36 2.36 93 1010.5
20260505064512 64 138 16.5 20.9 0.10 2.36 2.36 93 1011.2
20260505064013 64 124 14.8 17.4 0.08 2.35 2.35 94 1010.8
20260505063510 64 171 8.7 13.9 0.08 2.35 2.35 94 1010.5
20260505063023 64 135 11.3 17.4 0.08 2.35 2.35 94 1010.8
20260505062509 64 186 11.3 18.2 0.08 2.35 2.35 94 1010.5
20260505062013 64 148 16.5 19.1 0.03 2.30 2.30 94 1010.8
20260505061512 64 162 18.2 20.9 0.03 2.29 2.29 94 1010.8
20260505061012 64 177 12.2 16.5 0.02 2.28 2.28 94 1011.2
20260505060509 64 198 9.6 12.2 0.00 2.27 2.27 94 1010.8
20260505060032 64 187 12.2 20.9 0.10 2.27 2.27 94 1011.2
20260505055508 64 145 13.9 18.2 0.10 2.26 2.26 94 1010.8
20260505055012 64 128 13.9 17.4 0.10 2.26 2.26 94 1010.8
20260505054512 64 155 10.4 13.9 0.10 2.26 2.26 94 1011.2
20260505054013 64 172 3.5 6.1 0.05 2.21 2.21 94 1010.8
20260505053509 64 108 7.8 12.2 0.05 2.21 2.21 94 1010.5
20260505053022 64 135 13.9 17.4 0.00 2.16 2.16 94 1010.8
20260505052509 64 147 7.8 10.4 0.00 2.16 2.16 95 1010.5
20260505052012 64 148 12.2 16.5 0.00 2.16 2.16 95 1010.8
20260505051512 63 152 13.9 18.2 0.00 2.16 2.16 95 1010.8
20260505051013 63 166 16.5 24.3 0.00 2.16 2.16 95 1010.5
20260505050509 63 118 9.6 13.0 0.00 2.16 2.16 95 1010.8
20260505041512 63 123 13.9 16.5 0.30 1.22 1.22 95 1010.2
20260505041011 63 185 19.1 26.9 0.22 1.14 1.14 95 1010.2
20260505040510 63 134 19.1 22.6 0.15 1.07 1.07 95 1010.2
20260505040031 63 155 13.9 24.3 0.74 0.92 0.92 95 1010.2
20260505035509 63 171 9.6 14.8 0.67 0.85 0.85 95 1010.5
20260505035012 63 128 8.7 13.0 0.45 0.63 0.63 95 1010.2
20260505034512 63 169 6.1 9.6 0.45 0.63 0.63 95 1010.2
20260505034012 63 182 13.0 18.2 0.43 0.60 0.60 95 1010.5
20260505033509 63 137 13.9 19.1 0.42 0.60 0.60 95 1010.8
20260505033021 63 146 19.1 22.6 0.42 0.59 0.59 95 1010.8
20260505032509 63 155 12.2 19.1 0.30 0.48 0.48 95 1010.8
20260505032012 63 166 9.6 16.5 0.25 0.42 0.42 95 1011.2
20260505031512 63 150 19.1 26.1 0.22 0.40 0.40 95 1010.8
20260505031012 63 117 13.9 16.5 0.13 0.31 0.31 95 1010.8
20260505030509 63 146 5.2 9.6 0.04 0.22 0.22 95 1010.8
20260505030031 63 135 9.6 14.8 0.09 0.18 0.18 95 1010.5
20260505025508 63 143 11.3 14.8 0.05 0.14 0.14 95 1010.8
20260505025012 63 182 11.3 14.8 0.05 0.14 0.14 95 1010.8
20260505024512 63 141 12.2 14.8 0.05 0.14 0.14 94 1010.8
20260505024012 63 155 12.2 13.9 0.05 0.14 0.14 94 1011.2
20260505023509 63 120 8.7 13.0 0.05 0.14 0.14 94 1011.2
20260505023021 63 161 10.4 13.0 0.05 0.14 0.14 94 1011.2
20260505022509 63 139 9.6 12.2 0.05 0.13 0.13 94 1011.2
20260505022012 63 143 13.0 18.2 0.05 0.13 0.13 94 1011.2
20260505021512 63 143 8.7 12.2 0.01 0.10 0.10 94 1011.2
20260505021012 63 149 12.2 14.8 0.00 0.08 0.08 94 1011.2
20260505020508 63 144 10.4 14.8 0.00 0.08 0.08 94 1011.5
20260505020030 63 144 13.9 18.2 0.04 0.08 0.08 94 1011.5
20260505015013 63 152 11.3 13.9 0.03 0.08 0.08 94 1011.5
20260505014511 63 162 11.3 16.5 0.03 0.08 0.08 94 1011.5
20260505014012 63 141 13.9 14.8 0.02 0.07 0.07 94 1011.5
20260505013509 63 137 10.4 16.5 0.02 0.07 0.07 94 1011.5
20260505013021 63 149 12.2 17.4 0.02 0.07 0.07 94 1011.9
20260505012508 63 148 13.9 18.2 0.02 0.07 0.07 94 1011.9
20260505012012 63 152 10.4 14.8 0.02 0.07 0.07 94 1011.9
20260505011012 63 153 10.4 13.0 0.00 0.05 0.05 94 1011.9
20260505010509 63 139 9.6 12.2 0.00 0.05 0.05 94 1012.2
20260505010031 63 112 5.2 9.6 0.02 0.05 0.05 94 1011.9
20260505005012 63 160 9.6 13.9 0.02 0.05 0.05 94 1012.2
20260505004511 63 97 9.6 10.4 0.02 0.05 0.05 94 1012.2
20260505004012 63 171 10.4 12.2 0.02 0.05 0.05 94 1012.5
20260505003509 63 248 6.1 10.4 0.02 0.05 0.05 94 1012.5
20260505003021 63 130 12.2 14.8 0.01 0.04 0.04 94 1012.5
20260505002509 63 170 7.8 10.4 0.00 0.04 0.04 94 1012.5
20260505002012 63 155 7.0 9.6 0.00 0.03 0.03 94 1012.5
20260505001512 63 162 10.4 12.2 0.00 0.03 0.03 94 1012.5
20260505001012 63 145 9.6 14.8 0.00 0.03 0.03 94 1012.5
20260505000509 63 142 5.2 7.8 0.00 0.03 0.03 94 1012.9
20260505000033 63 158 7.0 9.6 0.01 0.03 0.03 94 1012.9
20260504235509 63 185 7.0 9.6 0.01 0.03 0.03 94 1012.9
20260504235012 63 194 5.2 6.1 0.01 0.03 0.03 94 1012.9
20260504234512 63 145 8.7 13.0 0.01 0.03 0.03 94 1012.9
20260504234013 63 153 7.8 10.4 0.01 0.03 0.03 94 1013.2
20260504233509 63 210 7.8 10.4 0.01 0.03 0.03 94 1013.2
20260504233022 63 117 4.3 6.1 0.01 0.03 0.03 94 1013.2
20260504232509 63 132 8.7 13.0 0.01 0.03 0.03 94 1013.2
20260504231511 63 189 7.8 10.4 0.00 0.02 0.02 93 1013.6
20260504231012 63 125 5.2 7.8 0.00 0.02 0.02 93 1013.6
20260504230508 63 148 9.6 11.3 0.00 0.02 0.02 93 1013.6
20260504230033 63 177 5.2 7.8 0.02 0.02 0.02 93 1013.6
20260504225509 63 136 8.7 11.3 0.02 0.02 0.02 93 1013.9
20260504225012 63 139 9.6 10.4 0.02 0.02 0.02 93 1013.9
20260504224012 63 137 7.0 9.6 0.02 0.02 0.02 93 1013.9
20260504223509 63 142 6.1 7.8 0.01 0.01 0.01 93 1013.9
20260504223023 63 175 7.0 10.4 0.01 0.01 0.01 92 1014.2
20260504222508 63 154 2.6 5.2 0.01 0.01 0.01 92 1013.9
20260504222012 63 170 7.8 10.4 0.01 0.01 0.01 92 1014.2
20260504221511 63 159 5.2 7.8 0.01 0.01 0.01 92 1014.2
20260504221013 63 157 2.6 3.5 0.01 0.01 0.01 91 1014.2
20260504220509 63 135 4.3 9.6 0.00 0.00 0.00 91 1014.2
20260504220032 63 195 3.5 6.1 0.00 1.46 1.46 90 1014.2
20260504215509 63 138 5.2 7.8 0.00 1.46 1.46 90 1014.2
20260504215012 63 134 5.2 7.0 0.00 1.46 1.46 89 1014.6
20260504214512 63 167 10.4 13.0 0.00 1.46 1.46 88 1014.2
20260504214012 63 136 7.8 13.9 0.00 1.46 1.46 88 1014.6
20260504213508 63 135 5.2 7.8 0.00 1.46 1.46 88 1014.6
20260504213021 63 126 7.8 9.6 0.00 1.46 1.46 87 1014.6
20260504212513 64 192 4.3 6.1 0.00 1.46 1.46 87 1014.9
20260504211512 63 133 9.6 13.0 0.00 1.46 1.46 87 1014.6
20260504211012 63 145 5.2 7.8 0.00 1.46 1.46 87 1014.9
20260504210031 64 164 6.1 9.6 0.00 1.46 1.46 87 1014.6
20260504205510 63 138 7.8 9.6 0.00 1.46 1.46 87 1014.6
20260504205012 63 153 6.1 7.8 0.00 1.46 1.46 87 1014.9
20260504204512 63 124 4.3 7.8 0.00 1.46 1.46 87 1014.9
20260504204011 64 62 6.1 9.6 0.00 1.46 1.46 87 1014.6
20260504202509 63 135 6.1 7.8 0.00 1.46 1.46 86 1014.6
20260504202014 64 113 6.1 9.6 0.00 1.46 1.46 87 1014.9
20260504201512 63 143 5.2 7.8 0.00 1.46 1.46 87 1014.6
20260504201013 63 117 7.0 9.6 0.00 1.46 1.46 86 1014.9
20260504200509 64 123 6.1 9.6 0.00 1.46 1.46 86 1014.6
20260504200029 64 142 3.5 5.2 0.00 1.46 1.46 86 1014.6
20260504195509 64 166 7.8 10.4 0.00 1.46 1.46 86 1014.9
20260504195012 64 166 6.1 7.8 0.00 1.46 1.46 85 1014.9
20260504194512 64 140 7.8 9.6 0.00 1.46 1.46 85 1014.6
20260504194014 64 117 5.2 7.8 0.00 1.46 1.46 85 1014.6
20260504193510 63 133 7.0 9.6 0.00 1.46 1.46 85 1014.9
20260504193022 64 141 6.1 7.8 0.00 1.46 1.46 86 1014.9
20260504192509 64 181 7.8 10.4 0.00 1.46 1.46 85 1014.6
20260504192013 64 162 7.0 7.8 0.00 1.46 1.46 85 1014.9
20260504185509 63 161 5.2 7.0 0.00 1.46 1.46 86 1014.6
20260504185013 64 166 2.6 4.3 0.00 1.46 1.46 86 1014.9
20260504184515 64 129 5.2 7.8 0.00 1.46 1.46 86 1014.6
20260504184013 64 135 1.7 3.5 0.00 1.46 1.46 85 1014.6
20260504183509 64 148 4.3 6.1 0.00 1.46 1.46 85 1014.9
20260504183023 64 157 5.2 9.6 0.00 1.46 1.46 85 1014.6
20260504182509 64 138 7.0 10.4 0.00 1.46 1.46 85 1014.9
20260504182013 64 158 6.1 7.0 0.00 1.46 1.46 84 1014.6
20260504181513 64 197 6.1 9.6 0.00 1.46 1.46 84 1014.6
20260504181014 64 154 6.1 9.6 0.00 1.46 1.46 84 1014.6
20260504180510 64 135 7.0 9.6 0.00 1.46 1.46 85 1014.6
20260504175509 64 131 10.4 11.3 0.00 1.46 1.46 85 1014.6
20260504175013 64 158 9.6 11.3 0.00 1.46 1.46 85 1014.6
20260504174513 64 130 5.2 7.0 0.00 1.46 1.46 85 1014.6
20260504174013 64 196 10.4 11.3 0.00 1.46 1.46 85 1014.9
20260504173509 64 158 5.2 9.6 0.00 1.46 1.46 85 1014.9
20260504173023 64 154 7.8 9.6 0.00 1.46 1.46 85 1014.9
20260504172509 64 230 7.0 10.4 0.00 1.46 1.46 85 1014.9
20260504172013 64 137 6.1 7.8 0.00 1.46 1.46 84 1014.9
20260504171513 64 178 7.8 9.6 0.00 1.46 1.46 84 1014.9
20260504171013 64 154 13.0 17.4 0.00 1.46 1.46 83 1014.9
20260504170508 64 163 3.5 6.1 0.00 1.46 1.46 83 1014.9
20260504151014 64 150 11.3 13.9 0.05 1.39 1.39 79 1015.6
20260504150510 64 134 10.4 13.9 0.00 1.34 1.34 78 1015.6
20260504141013 66 169 7.8 13.9 0.12 1.11 1.11 77 1015.6
20260504140509 66 152 8.7 13.0 0.05 1.03 1.03 78 1015.6
20260504130509 66 132 11.3 14.8 0.00 0.50 0.50 79 1015.9
20260504110509 66 167 13.0 16.5 0.00 0.12 0.12 76 1016.6
20260504100509 64 144 11.3 17.4 0.00 0.10 0.10 77 1016.9